sat.trackr.live / text

‹ back to catalog

KL-BETA A

NORAD 49059 · 2021-070A

PAYLOAD ACTIVE UNKNOWN

§ Identity

Operator
Country
GER
Launch date
2021-08-04
Launch site
TAISC
Launch vehicle
Mass (kg)
RCS (m²)

External: N2YO · Heavens-Above · Gunter

§ Orbital elements

Epoch: 2026-09-15T22:03:56.456352Z

Period
103.27 min
Inclination
89.0114°
Eccentricity
0.0003631
Mean motion
13.94404006 rev/d
Perigee alt
910.6 km
Apogee alt
915.9 km
Semi-major
7,291.4 km
B*
1.4262e-5
RAAN
208.7781°
Arg perigee
88.7171°
Mean anomaly
271.4420°
Rev number
26,057

§ Raw data

KL-BETA A1 49059U 21070A   26258.91940343  .00000032  00000+0  14262-4 0  99962 49059  89.0114 208.7781 0003631  88.7171 271.4420 13.94404006260571

JSON: /api/v1/satellites/49059 · /tle

For live sub-satellite position, see the globe view (requires WebGL).

§ Visibility from observer

Set your observer location to see the next 7 days of passes ≥ 10°. The values pass through the URL so the page stays shareable.

No JS? Fill the form by hand. The geolocation button needs JavaScript.